Theta_e
311 311 312 312 312 313 313 315 316 314 313 309 304 305 300 300 296 302 306 310 309 302 295 296 294 294 295 298 296 297 296 296 296 297 297 296 297 295 295 295 294 294 294 291 290 292 288 289 289 287 288 288 289 290 290 291 292 292 288 290 289 292 284 281 280 280 280 283 283 282 283 284 286 284 280 282 283 284 284 283 281 279 276 275 273 274 280
309 309 310 310 311 311 312 313 313 311 309 306 305 302 298 297 295 299 305 309 306 299 289 289 293 293 294 295 295 297 296 296 294 295 297 296 295 294 293 294 297 294 293 291 291 293 287 290 290 288 287 289 290 288 290 292 291 292 290 289 293 286 286 285 279 277 277 279 283 283 284 283 281 281 281 281 281 280 279 279 278 277 277 278 277 275 280
308 308 308 308 309 309 308 308 308 307 306 304 305 299 298 297 298 298 301 305 303 293 295 293 292 293 291 293 292 293 294 296 298 297 296 296 295 294 293 296 295 293 293 292 292 293 293 287 290 289 287 289 289 288 288 290 291 291 291 294 293 289 286 285 280 278 276 275 275 277 281 283 282 280 281 283 285 282 282 278 276 278 275 277 275 279 283
307 307 307 307 308 307 307 306 306 305 305 305 302 298 296 293 288 294 295 300 297 296 296 294 293 292 291 291 292 294 292 294 295 298 296 298 296 296 294 293 294 291 291 289 290 291 291 291 287 288 287 288 287 287 287 287 288 290 293 289 291 286 285 286 286 283 281 283 280 282 283 281 281 280 282 283 282 283 283 276 275 278 275 278 281 282 280
306 306 306 306 306 306 306 305 305 304 303 303 299 295 296 295 289 289 286 295 294 292 295 293 293 290 295 288 291 290 293 293 292 298 292 297 296 294 295 293 292 291 291 290 290 291 290 289 288 288 286 287 286 288 287 288 289 292 290 291 286 285 284 286 285 284 285 282 280 281 285 283 283 283 281 282 282 281 282 281 279 279 275 277 283 278 277
306 305 305 305 305 305 305 304 303 303 302 303 301 293 294 289 291 293 295 290 286 288 289 293 292 292 293 290 292 290 290 290 289 293 295 294 296 292 291 293 294 292 292 291 286 288 288 288 286 288 286 287 288 288 288 288 289 289 287 287 290 285 285 287 285 283 285 281 282 282 284 285 285 286 286 283 282 279 280 281 281 282 282 280 283 280 281
306 305 305 304 304 304 304 303 302 302 302 303 298 292 291 292 289 291 295 289 290 291 292 293 292 291 292 287 290 287 289 289 292 290 290 292 291 295 286 289 292 293 292 291 286 287 284 285 287 287 286 287 286 286 286 288 286 287 286 287 284 286 283 286 284 285 286 283 282 283 283 282 281 282 284 284 282 280 282 283 283 283 284 284 281 280 282
306 305 305 304 304 304 303 302 302 302 302 301 296 292 291 287 289 287 290 289 286 288 291 291 291 287 291 285 287 288 287 286 290 291 291 286 289 294 290 291 291 292 291 291 287 288 289 287 284 288 288 286 287 286 287 285 285 285 286 286 286 287 282 287 283 283 283 280 278 279 279 278 279 281 281 280 279 280 281 282 282 281 281 282 281 280 280
307 305 305 305 304 304 303 302 302 302 303 295 293 290 292 290 289 290 288 286 286 287 288 289 288 286 288 286 288 288 288 287 291 290 294 291 288 291 290 292 289 290 290 291 290 292 290 290 290 290 289 287 288 288 286 290 284 284 284 284 284 286 282 280 280 281 281 278 279 278 278 279 278 280 283 280 279 278 280 278 280 281 280 282 281 279 280
307 306 305 305 304 304 303 302 302 301 302 292 291 288 291 288 289 289 289 285 290 286 287 287 287 284 288 288 289 288 288 290 291 287 291 293 293 293 293 293 291 287 289 289 291 294 292 291 288 288 289 289 286 289 287 290 288 284 286 284 283 285 281 279 278 279 280 277 278 278 277 279 277 279 281 283 281 283 278 280 280 282 283 279 278 280 285
307 307 306 305 304 304 304 303 302 301 296 290 288 286 287 287 287 287 288 285 284 286 287 286 287 288 289 290 289 290 289 290 291 287 285 288 289 289 292 291 289 287 288 290 290 290 289 287 286 287 287 287 286 286 286 286 287 286 286 281 278 282 282 282 283 279 276 272 275 277 276 271 277 283 285 286 282 282 279 278 279 280 282 281 284 283 280
308 307 306 305 305 304 304 304 302 301 299 293 292 288 289 289 287 286 286 284 285 285 287 285 287 287 287 289 290 289 288 289 289 292 289 286 287 286 289 289 290 287 288 287 288 288 288 289 288 287 285 284 284 284 286 288 285 286 286 286 281 282 283 281 279 276 271 273 274 274 269 275 279 275 276 277 281 282 281 282 282 280 281 281 280 280 278
308 308 307 306 305 304 304 304 304 301 299 293 292 289 290 291 289 286 285 285 283 284 284 285 286 286 286 287 287 288 290 289 290 291 290 288 285 284 286 288 289 289 288 287 289 289 285 281 282 281 282 282 282 282 280 279 278 282 283 285 285 280 281 278 275 274 272 271 274 269 272 277 276 275 275 277 276 276 276 274 276 276 278 280 280 281 280
306 307 307 307 306 305 304 304 304 303 300 296 290 290 289 289 287 284 285 284 283 284 285 285 283 283 285 286 286 285 287 287 286 287 287 285 286 285 284 286 286 287 287 289 288 286 281 282 279 281 280 280 280 280 280 278 278 278 278 280 282 284 281 280 276 279 270 274 272 276 278 278 278 273 274 276 275 274 274 271 275 278 278 278 278 279 280
306 306 307 306 306 306 305 304 304 304 302 299 292 289 289 289 289 286 284 284 282 282 284 282 284 284 285 285 287 285 285 285 286 284 282 282 281 283 283 283 284 285 285 287 283 283 282 279 274 275 275 276 272 275 278 276 278 277 278 279 281 282 282 282 279 276 275 271 270 269 271 271 278 279 277 278 277 277 276 276 270 276 272 277 277 277 279
305 305 306 306 306 305 305 305 304 304 302 300 293 290 290 290 288 288 285 283 282 278 281 285 282 282 283 283 286 286 285 284 285 283 281 280 280 282 282 283 284 284 284 282 282 281 278 278 274 276 272 275 276 274 273 274 274 276 277 279 281 281 282 280 281 276 272 272 271 271 270 273 279 276 275 275 275 277 275 271 267 274 271 276 277 277 277
304 304 305 305 306 306 305 305 304 304 303 300 293 291 289 292 288 285 284 281 282 279 281 281 282 281 280 280 282 283 285 285 286 283 281 281 280 280 282 283 284 285 283 283 280 279 276 272 272 273 273 274 273 272 271 269 270 269 273 276 278 276 275 277 275 273 274 272 271 271 274 272 275 271 274 274 274 275 274 262 263 269 273 274 275 276 276
303 304 304 304 305 306 306 305 305 304 304 302 295 291 290 292 290 289 284 281 279 278 280 281 281 281 281 280 277 279 281 280 280 283 282 281 279 279 280 283 282 285 285 282 280 279 277 274 274 273 274 277 276 276 269 272 265 266 268 273 273 276 274 276 273 277 276 277 273 271 272 277 273 272 274 273 273 273 263 266 268 271 272 273 276 275 276
303 303 303 303 304 304 304 305 305 305 304 303 297 294 291 293 291 290 284 282 279 276 280 281 283 281 282 281 278 279 280 282 282 281 277 279 278 277 279 280 285 281 285 279 280 277 278 275 275 275 275 274 274 271 274 269 269 269 271 268 267 269 271 271 275 272 274 275 273 273 276 279 274 273 275 275 274 264 267 272 273 275 273 273 275 276 275
303 303 303 303 303 303 304 304 304 304 304 304 299 292 294 294 292 292 287 280 278 279 280 280 282 282 283 281 280 279 279 280 279 281 281 280 280 282 282 278 283 279 276 282 277 278 278 276 276 271 269 274 273 275 264 265 271 267 270 270 270 271 270 268 273 272 270 271 270 270 267 275 276 276 274 275 270 270 274 273 274 274 275 274 274 275 275
302 302 303 303 303 303 303 303 303 303 303 304 301 294 291 294 293 292 291 287 283 278 280 282 281 283 283 282 283 282 282 281 280 280 282 280 283 284 276 279 282 280 276 281 276 278 277 271 270 271 272 276 276 273 268 266 265 270 270 268 268 270 264 261 267 274 267 271 268 269 277 275 277 278 274 273 277 276 275 276 275 275 274 275 275 275 275
302 303 302 303 303 303 303 304 303 303 303 303 301 296 291 293 293 294 293 292 286 282 278 282 283 283 284 284 285 285 284 283 283 283 280 279 279 281 277 281 282 279 276 274 271 268 269 267 267 268 271 265 263 266 263 263 263 265 263 267 267 274 270 270 268 271 269 268 273 273 272 276 278 279 277 278 280 276 276 276 277 276 275 274 275 276 276
302 302 302 303 303 303 303 303 303 303 303 303 301 295 291 292 292 294 292 288 288 288 287 283 284 284 287 287 286 284 283 283 282 280 282 281 277 276 275 278 277 276 273 278 280 275 272 269 269 268 261 265 273 263 262 263 261 260 266 271 271 270 272 271 269 269 272 273 274 273 273 275 277 278 277 277 278 276 274 275 275 275 276 276 276 276 275
302 301 301 302 302 302 302 302 302 302 303 303 301 295 293 293 293 292 289 289 286 283 286 286 284 282 283 283 286 286 284 283 285 283 282 285 279 272 275 277 278 274 269 274 277 274 268 261 265 263 266 269 265 262 268 265 265 263 263 265 269 270 271 270 270 270 269 267 273 274 275 274 276 279 279 276 276 277 277 275 276 276 275 275 276 276 276
301 302 302 301 301 302 302 302 302 302 303 303 300 298 296 292 293 292 288 283 283 283 278 283 284 288 287 288 287 284 285 285 287 284 283 283 282 280 278 279 279 280 278 276 273 273 263 267 267 263 267 270 274 265 266 268 266 269 262 268 266 270 274 271 271 270 270 268 271 273 273 274 276 278 278 278 279 278 276 278 278 278 276 275 276 274 273
301 301 301 301 302 302 301 302 301 302 303 302 300 295 293 292 294 294 291 289 287 285 279 278 282 289 288 285 283 286 285 287 286 284 284 283 283 284 281 279 275 278 277 278 277 275 265 262 257 257 266 268 275 261 260 271 266 268 270 271 274 272 274 264 269 270 271 273 273 272 273 274 275 275 276 277 278 278 276 276 276 275 274 273 273 274 275
299 300 301 301 302 301 301 301 302 302 302 301 299 297 295 294 295 293 290 288 285 279 282 279 283 282 284 285 286 285 285 287 286 284 283 283 282 281 282 280 279 277 277 273 271 268 258 258 265 270 263 263 269 264 267 267 269 266 264 271 273 272 271 271 269 265 264 268 272 273 267 267 274 276 277 277 278 277 276 275 273 273 273 273 274 274 272
300 301 300 301 301 301 301 301 301 301 301 301 300 297 297 294 294 294 294 292 287 280 280 279 278 280 282 279 284 287 287 287 286 285 283 282 281 282 281 280 277 275 274 275 269 269 267 270 270 267 267 266 270 267 272 270 269 263 265 271 274 273 275 273 271 272 266 272 275 276 277 277 276 277 278 278 277 276 275 276 276 275 275 275 274 274 273
300 300 300 300 300 301 301 301 301 302 302 300 297 294 293 296 295 296 294 294 292 284 280 280 278 277 278 282 284 284 285 287 285 284 283 281 281 281 281 280 279 278 277 273 271 268 264 269 274 269 265 273 268 260 267 264 265 267 272 276 275 277 276 276 275 274 273 275 275 276 275 276 277 276 275 276 277 276 276 277 277 277 276 274 274 275 276
300 300 299 300 300 300 301 300 300 301 301 297 292 288 286 286 295 294 295 294 291 286 283 279 276 279 280 278 278 281 282 283 284 283 283 281 280 280 280 280 279 281 275 275 274 270 272 268 273 274 274 277 272 266 267 262 264 272 277 278 278 277 277 275 274 275 277 275 275 276 277 277 278 277 275 276 276 276 277 277 277 276 275 274 274 275 274
299 299 300 300 300 300 300 300 301 300 300 293 290 283 282 280 287 296 297 295 293 288 284 285 280 282 275 276 278 281 283 283 282 282 282 282 281 280 280 281 279 282 275 274 273 275 275 268 272 272 276 278 276 267 268 267 266 267 277 278 278 278 277 275 278 279 278 275 274 274 274 276 276 276 276 275 273 275 275 275 276 276 276 274 274 275 276
298 299 299 300 300 299 300 301 301 300 296 290 288 285 285 286 288 295 298 296 294 287 284 280 279 278 277 281 279 281 283 283 283 282 282 283 280 281 277 281 278 281 281 275 275 274 273 274 272 273 275 281 279 267 273 271 271 273 278 279 279 278 277 277 277 277 276 277 274 274 275 276 276 276 279 281 276 275 275 277 277 275 275 274 274 271 272
298 299 299 299 300 300 300 301 301 299 294 295 297 293 291 294 296 298 297 293 290 285 286 282 276 278 276 277 278 275 281 281 280 283 280 284 279 280 275 281 279 280 287 281 277 275 276 278 276 273 276 278 274 276 275 274 275 278 279 280 279 277 278 277 277 278 278 277 278 276 276 278 279 278 278 280 276 273 274 275 275 272 271 269 271 273 272
297 298 298 299 299 300 299 300 300 299 298 293 286 289 291 293 294 297 293 290 286 285 284 280 277 274 270 273 272 276 282 280 280 283 277 283 281 282 278 281 281 279 281 279 280 279 275 276 274 273 278 274 277 272 272 276 279 279 280 280 280 280 278 276 276 276 277 276 277 280 281 281 280 275 273 275 276 273 273 272 270 271 271 271 272 274 275
297 298 298 299 299 300 299 299 295 292 287 286 286 288 294 297 297 297 293 289 282 280 279 278 280 273 269 267 267 271 282 282 278 282 278 282 286 281 282 278 280 277 278 285 279 279 278 278 279 275 272 278 275 272 275 277 279 280 280 280 281 280 278 277 277 278 277 276 275 277 278 277 276 276 277 276 275 272 271 271 271 273 272 272 273 273 272
298 298 298 299 298 298 294 295 287 284 283 284 284 292 297 298 297 293 291 286 285 281 279 277 279 275 276 268 266 269 283 279 283 282 281 282 279 284 282 280 275 279 283 280 275 280 277 282 278 272 280 274 272 276 277 280 279 280 280 279 280 280 280 280 280 280 275 274 274 275 275 275 275 276 278 277 275 270 272 272 270 269 272 274 274 274 272
297 297 298 297 292 288 285 285 288 286 285 289 292 296 296 293 289 288 286 286 285 285 279 278 274 274 278 271 268 272 280 273 283 278 281 278 276 282 280 279 274 281 278 276 278 277 280 284 278 274 275 273 276 280 281 281 281 280 279 279 280 281 281 281 281 280 275 269 269 272 274 274 274 274 275 275 275 273 268 270 271 270 270 271 273 273 273
296 296 287 285 284 281 280 281 283 287 295 294 293 288 284 286 280 282 282 280 282 283 277 278 275 274 272 273 269 280 279 272 281 277 279 281 278 275 280 277 277 280 269 274 276 282 278 276 275 274 275 280 280 281 281 281 281 280 278 278 280 280 280 280 280 277 273 273 271 272 269 267 269 272 272 274 274 272 273 274 274 274 274 273 274 274 273
293 286 284 283 281 279 279 279 291 296 292 289 285 280 278 281 278 275 274 279 279 274 279 278 275 276 274 272 273 282 277 275 277 279 274 282 277 272 277 270 277 278 271 272 273 283 273 275 274 275 273 277 277 279 282 281 280 278 279 281 281 281 280 279 277 277 278 278 279 280 279 277 274 274 273 272 273 273 274 273 273 273 272 273 273 272 270
285 282 281 282 278 278 285 290 297 291 288 281 280 278 275 278 275 270 278 272 273 275 279 271 277 274 277 275 275 274 282 276 274 274 276 276 282 272 274 271 276 274 268 271 270 278 271 268 274 273 272 277 277 280 281 280 279 280 280 280 280 279 277 278 278 278 279 280 280 280 279 276 276 276 276 273 273 273 272 271 273 273 271 271 271 270 269
284 282 282 279 281 284 287 288 285 283 280 276 275 275 274 270 271 272 274 271 271 270 275 274 274 272 277 275 277 273 279 276 272 275 274 271 275 274 267 268 274 267 267 268 272 267 266 264 269 271 273 278 278 280 279 279 279 279 278 277 277 278 277 277 278 278 275 276 276 277 277 274 272 274 275 275 274 273 274 273 272 272 270 269 268 266 260
284 283 282 285 286 287 285 282 279 277 276 277 272 270 271 271 271 267 271 269 270 272 271 275 271 273 272 276 274 277 274 274 272 274 272 270 279 270 266 264 267 265 264 271 265 259 262 264 268 267 273 277 278 277 273 273 275 275 276 275 275 277 277 277 277 276 273 275 276 276 275 271 270 273 273 271 272 273 272 270 268 264 266 262 259 256 256
291 289 288 283 282 280 280 276 277 276 271 270 269 267 269 265 269 270 268 271 268 268 270 270 270 280 275 275 274 272 274 278 276 273 269 268 276 273 268 268 267 263 267 260 259 262 260 262 262 268 273 275 276 275 275 276 275 273 273 272 271 272 272 273 274 275 271 272 272 274 270 267 264 257 252 257 260 261 255 253 258 258 255 254 254 254 254
287 285 280 277 278 277 279 270 277 271 269 269 269 265 266 266 268 267 266 269 267 267 271 273 273 274 270 271 274 274 274 276 279 269 268 270 267 269 271 267 268 270 268 262 263 262 263 258 265 271 273 273 274 272 273 271 269 268 271 268 264 264 265 265 265 266 269 263 262 256 251 253 251 252 250 248 252 261 255 251 252 254 253 253 253 253 252
280 276 275 274 272 276 273 267 274 269 267 268 272 267 268 267 270 269 270 271 271 272 274 272 274 272 272 269 270 272 278 270 277 272 270 271 265 269 266 266 269 268 266 265 264 261 261 263 269 268 269 270 271 268 267 267 267 269 269 267 265 262 263 266 269 268 268 264 260 256 257 251 253 252 249 249 249 250 255 253 252 254 254 254 253 253 253
277 275 274 270 268 272 270 267 268 265 268 271 267 267 270 272 272 272 270 265 267 268 273 274 273 273 271 270 274 273 272 270 269 271 273 271 267 266 268 266 266 265 267 265 265 266 268 271 273 274 271 267 265 263 260 260 259 259 264 268 267 263 260 261 261 260 258 253 252 252 251 251 251 253 251 249 249 249 250 251 254 254 253 254 252 252 252
276 275 273 272 269 270 270 266 265 267 267 266 268 269 271 272 269 269 266 265 270 271 273 271 274 273 273 269 268 267 265 268 267 270 271 267 268 269 271 266 265 267 265 264 264 265 268 271 272 265 258 256 256 256 256 255 256 256 256 258 258 257 256 256 255 257 253 251 252 252 251 250 249 250 250 251 250 250 250 251 252 251 253 253 252 250 249
273 276 273 267 267 269 267 268 265 262 261 262 262 261 264 265 271 267 266 265 273 274 274 273 270 268 270 268 268 268 264 264 267 267 268 268 267 261 264 264 264 267 265 265 267 269 270 266 260 257 255 253 253 254 254 254 254 254 254 255 255 255 254 254 253 250 251 251 250 250 249 249 249 250 250 249 249 249 248 248 249 250 251 250 249 249 249
274 272 271 269 269 269 267 266 268 269 264 262 260 265 269 272 269 268 266 266 273 273 272 272 268 269 265 269 267 270 267 272 266 268 269 264 262 261 264 260 263 262 265 266 268 266 265 260 254 252 252 253 253 253 252 252 253 252 253 251 251 251 251 251 250 249 250 249 251 250 250 249 251 250 250 249 249 249 249 248 248 248 249 249 249 248 248
272 269 267 266 266 266 264 264 268 267 264 263 265 267 267 269 268 266 266 269 269 273 273 275 274 271 266 266 264 268 266 269 268 268 263 263 264 264 262 257 260 262 260 258 260 258 254 252 253 253 253 251 253 252 251 251 252 252 251 250 250 250 249 249 249 250 250 250 250 249 249 250 250 251 251 251 249 248 247 247 246 246 246 247 248 248 247
272 270 267 267 267 267 268 267 268 265 264 266 264 264 263 266 266 267 265 268 271 269 265 265 267 265 266 265 265 263 265 269 266 264 263 262 263 262 262 261 262 261 259 257 255 254 254 253 251 251 251 251 252 251 251 250 249 249 249 248 250 251 250 248 248 249 249 248 249 250 249 248 249 251 250 250 249 248 247 246 244 244 244 244 244 246 246
269 267 267 265 263 264 266 267 266 265 264 264 264 263 264 266 263 263 263 268 272 272 268 262 264 264 264 264 267 266 265 264 264 266 262 262 261 259 256 259 262 260 257 256 256 253 251 249 248 247 247 249 250 249 248 248 248 247 247 247 247 247 247 250 250 249 249 248 248 247 247 247 249 250 251 250 250 250 250 247 245 243 243 243 242 242 242
Wind_Speed
11 10 9 10 10 11 11 13 16 18 23 11 6 6 3 5 2 3 3 5 10 10 7 3 3 6 3 5 2 2 1 4 4 6 2 3 2 1 2 4 4 4 4 3 3 6 3 7 7 1 1 2 1 3 2 4 6 4 1 3 2 4 2 1 2 2 3 2 0 1 1 1 1 2 2 4 7 8 9 6 4 6 2 2 1 4 5
11 11 11 11 11 13 12 13 16 13 6 7 8 6 4 3 3 1 0 2 1 7 9 9 12 4 1 0 2 2 2 4 4 5 5 4 4 4 3 1 3 2 2 3 5 5 1 3 6 3 2 2 2 4 1 3 5 4 6 6 6 4 3 5 1 1 2 2 1 1 1 1 3 3 2 1 1 3 2 5 2 1 9 7 7 14 8
9 11 12 11 12 12 13 13 11 10 10 5 5 6 5 5 2 2 0 2 1 6 0 4 7 8 6 5 7 5 1 3 3 5 6 2 3 3 2 3 4 2 2 3 2 4 7 0 1 1 1 2 1 5 4 6 3 3 2 2 4 3 3 7 8 11 10 7 7 7 7 9 2 1 1 4 8 7 3 5 3 10 2 8 6 12 2
9 9 11 12 12 11 11 11 10 10 9 5 5 3 4 3 3 1 2 0 2 2 2 2 2 7 5 5 4 5 4 1 2 4 2 4 2 1 2 1 2 2 3 3 4 5 1 5 2 3 3 1 2 1 5 5 3 2 7 5 2 2 0 5 9 11 12 9 1 1 5 4 6 5 7 7 4 7 6 3 4 13 3 9 11 9 1
8 9 9 11 12 11 10 10 9 9 8 6 5 3 2 1 5 5 4 2 3 2 1 3 2 4 4 4 2 7 7 3 0 5 3 3 4 1 1 3 5 3 4 5 4 2 3 1 2 6 3 0 1 1 3 2 3 3 3 4 4 2 1 7 7 9 9 1 2 3 6 6 5 7 7 7 8 8 12 13 12 7 2 12 6 6 4
8 8 9 9 10 11 10 9 9 8 5 4 2 3 3 2 1 4 1 5 5 7 6 6 3 1 2 2 1 2 6 3 4 2 1 2 3 4 2 1 3 5 7 5 3 3 2 3 4 2 0 1 1 1 2 1 1 1 1 4 2 4 5 6 4 5 6 2 2 2 3 4 4 9 11 12 13 10 15 17 7 8 12 17 7 9 6
9 10 10 9 9 9 10 10 9 7 5 4 3 4 2 2 1 1 1 4 1 4 2 8 4 2 4 1 2 3 6 9 5 3 1 1 1 5 4 7 10 7 3 4 3 5 4 7 3 3 3 4 1 1 2 1 3 2 1 0 0 2 4 4 2 8 8 5 3 1 6 3 1 6 12 14 14 18 19 14 13 15 11 4 2 7 10
11 11 11 10 10 10 10 10 11 9 6 3 4 2 2 1 2 0 3 3 2 2 4 5 5 5 6 1 6 5 5 6 1 1 4 1 2 0 7 8 5 6 5 6 6 10 6 5 5 4 4 2 3 3 5 1 2 0 3 3 3 4 4 4 3 6 9 4 1 2 4 4 6 8 9 11 4 5 9 8 2 5 4 7 5 4 12
14 12 12 12 11 11 10 10 11 12 8 4 2 1 2 2 1 0 6 2 1 2 3 5 5 3 4 6 5 4 6 8 8 3 3 7 5 5 12 10 2 4 7 10 15 9 8 6 8 9 11 8 6 6 5 7 3 3 1 1 1 4 4 3 2 6 5 3 6 3 2 1 4 10 17 9 8 11 9 7 7 7 9 7 6 10 12
17 15 14 13 13 12 11 10 11 12 6 5 3 3 1 3 0 1 2 1 4 5 3 3 5 7 7 7 4 5 10 3 7 2 4 6 5 7 10 7 7 3 8 14 16 11 8 8 0 1 2 1 2 3 2 6 8 6 7 2 5 6 4 4 3 7 8 1 3 5 4 1 6 16 22 14 11 9 2 2 5 11 7 7 9 13 10
18 18 16 15 13 13 12 12 11 8 5 4 4 2 3 3 3 2 3 2 1 5 5 5 9 2 6 7 6 3 3 6 8 8 2 1 3 0 3 5 6 5 10 6 1 4 5 7 5 4 5 3 3 2 4 4 1 5 7 3 2 4 7 6 5 7 1 1 4 4 5 9 16 2 3 14 16 16 11 7 10 9 9 7 9 8 1
19 19 19 17 16 15 14 14 13 11 4 3 4 4 3 3 5 4 4 5 4 4 6 7 10 2 4 9 10 8 9 8 9 7 9 2 1 1 3 2 4 6 0 6 11 12 10 5 7 6 8 6 5 3 2 6 1 3 1 5 4 8 9 7 4 5 4 2 5 4 11 17 2 3 6 3 4 6 13 14 11 5 8 7 8 7 4
18 20 20 20 18 17 16 16 15 13 6 3 3 4 3 1 5 4 4 4 5 7 7 5 3 4 1 2 4 7 7 5 5 6 5 4 2 1 2 4 6 2 8 10 11 7 5 2 5 4 2 3 3 6 7 6 4 4 3 1 5 5 6 2 1 4 4 4 7 7 9 2 3 5 5 3 8 3 2 5 7 7 9 12 11 10 8
17 20 22 21 21 19 18 17 16 15 11 6 4 3 4 3 4 3 3 4 4 4 4 3 1 4 5 5 3 1 2 4 1 1 5 0 4 6 2 0 1 1 7 6 6 7 4 1 1 2 1 2 2 1 2 5 3 3 4 4 4 7 4 4 4 3 5 4 9 10 4 6 3 2 2 6 5 6 6 7 7 9 11 10 7 8 12
16 18 21 22 22 22 22 20 17 15 13 9 6 4 4 2 3 4 1 2 5 1 4 10 7 9 5 3 5 4 4 3 6 3 1 1 3 1 1 0 2 2 0 4 2 2 3 3 2 3 1 3 4 4 2 2 1 2 0 2 3 1 8 6 7 4 7 5 3 2 3 10 6 2 1 1 3 5 3 4 6 6 2 7 9 11 16
16 17 17 20 20 21 23 23 20 18 15 12 6 4 4 4 4 5 3 4 4 6 7 8 5 4 6 5 6 10 7 5 5 3 2 1 1 1 1 1 0 1 3 4 2 5 3 4 5 5 5 5 2 4 3 2 2 1 2 2 1 3 1 2 7 3 4 3 6 5 6 6 2 4 4 1 1 7 4 1 7 5 6 10 12 11 8
17 18 18 17 20 22 21 21 22 21 18 15 6 6 4 5 4 5 4 1 3 7 4 3 4 5 4 1 1 1 4 8 7 5 4 4 3 2 2 2 1 2 2 4 2 3 3 3 1 1 1 2 3 5 2 1 2 1 2 4 6 2 2 0 1 2 4 4 4 7 3 5 2 3 1 3 3 5 5 3 8 3 8 6 7 9 8
18 19 19 18 16 17 21 20 20 22 20 17 9 6 4 4 4 6 4 3 4 3 2 3 5 4 7 5 3 1 3 3 3 3 2 1 4 2 3 3 2 1 2 4 3 4 5 4 7 4 6 1 3 2 5 3 4 3 4 4 4 2 1 1 7 6 8 9 5 3 6 4 2 6 4 3 2 5 5 11 7 3 5 5 7 7 8
19 19 20 19 18 18 19 20 20 20 20 18 7 4 1 5 5 5 5 2 3 5 1 1 0 2 1 3 2 2 2 2 3 6 3 1 4 4 6 2 2 4 3 6 1 4 6 5 1 2 5 3 2 6 1 3 5 2 5 4 2 2 3 5 1 4 8 5 6 8 6 5 6 2 9 6 4 3 9 6 3 9 7 5 9 9 6
20 20 20 20 20 18 19 20 20 20 22 22 12 7 3 8 8 10 9 6 3 4 2 4 4 7 3 4 4 2 1 1 2 4 7 7 1 8 4 2 3 4 1 4 5 3 4 5 5 1 2 4 3 4 2 3 3 8 4 3 4 8 7 5 7 2 4 1 6 4 10 3 11 9 3 2 4 7 5 2 0 4 7 10 8 7 6
21 21 20 21 21 20 19 19 21 22 21 22 15 6 4 5 7 4 3 6 5 2 6 2 1 5 4 5 6 5 5 5 4 3 3 3 7 7 7 7 7 5 6 6 8 4 3 2 2 3 2 4 4 4 5 2 2 5 4 4 3 3 4 3 3 5 6 8 8 9 6 4 11 13 8 6 9 5 5 7 5 3 5 8 8 7 8
23 20 20 21 22 21 20 19 20 21 23 23 16 7 6 6 7 6 4 5 4 6 3 2 3 3 5 4 5 5 7 3 5 3 4 2 2 2 2 4 7 4 3 4 5 2 2 2 2 3 3 1 3 4 2 4 4 2 3 3 2 6 9 7 7 4 9 9 8 2 2 9 10 7 5 8 9 5 8 6 8 8 6 5 6 9 8
23 22 22 20 21 22 22 22 21 20 21 21 15 9 7 8 6 5 7 6 1 1 1 0 0 1 1 2 3 6 5 1 4 3 3 5 2 1 2 3 3 0 1 1 6 5 5 7 6 4 2 1 9 3 1 3 2 1 5 5 5 4 1 2 3 5 3 2 4 0 1 2 8 6 4 5 5 2 4 6 4 5 6 10 9 8 8
21 23 23 20 22 23 22 23 25 24 24 24 16 10 7 9 10 8 4 4 6 4 2 2 0 7 9 6 5 4 2 1 4 5 2 3 5 2 2 2 1 2 0 2 2 6 5 3 4 2 3 6 6 4 7 7 6 4 2 3 2 3 2 2 4 3 1 7 1 7 7 3 6 12 9 3 2 5 5 4 5 5 6 8 7 6 9
22 23 24 25 23 21 21 21 23 25 26 27 19 9 7 5 8 11 10 7 5 6 5 3 12 11 3 7 2 2 5 5 4 6 4 3 4 6 6 3 4 4 4 4 2 8 3 4 1 1 5 7 8 5 2 4 6 5 3 6 1 5 4 3 6 2 5 6 4 3 3 3 6 8 8 8 11 7 5 7 6 5 3 5 6 2 2
24 25 25 23 21 22 23 22 22 20 21 23 19 10 10 10 10 9 8 2 2 3 5 8 4 2 5 3 4 6 6 9 7 6 6 6 5 5 6 3 3 4 6 2 2 6 5 3 2 1 5 7 3 5 4 6 4 2 6 10 7 4 4 4 4 5 3 0 0 0 2 2 5 7 9 9 7 5 5 7 6 4 4 4 3 5 6
26 25 24 22 23 23 24 22 23 24 24 23 15 9 9 7 11 14 11 9 6 3 5 10 3 1 1 10 4 2 3 7 7 7 5 4 4 3 5 5 7 3 5 3 3 5 3 3 3 6 3 5 3 3 3 1 3 4 3 6 2 4 7 2 3 3 3 6 6 6 2 4 7 10 13 12 12 6 5 3 3 4 6 6 6 7 5
22 24 24 22 23 23 23 24 23 25 25 22 12 10 8 9 11 12 12 12 13 5 4 3 1 4 1 2 4 6 8 8 10 9 8 6 5 7 7 8 6 5 2 5 0 0 2 5 7 2 1 1 3 1 1 0 3 3 3 7 6 9 11 7 8 10 4 6 8 9 10 8 7 8 9 10 6 5 7 8 9 8 8 8 7 7 6
22 23 25 25 24 22 21 23 24 25 25 18 8 9 7 9 10 12 12 10 9 4 4 2 1 2 5 5 2 5 5 7 8 9 8 6 7 7 8 9 8 6 4 3 3 3 3 3 3 5 3 6 6 3 3 2 3 7 10 10 7 10 4 9 6 5 2 7 6 8 7 9 8 6 5 6 7 9 10 10 9 10 8 6 8 9 10
23 23 24 25 23 22 22 22 23 24 22 11 5 3 5 3 9 14 14 13 9 5 5 5 3 5 1 2 1 2 3 4 6 7 8 7 7 8 8 9 4 5 3 5 6 4 4 2 2 1 1 1 4 3 3 2 3 8 11 13 10 6 7 3 4 4 7 3 5 8 9 9 8 6 5 7 6 8 8 11 12 10 8 7 9 10 8
26 23 22 23 23 24 23 23 22 23 21 7 7 5 6 6 8 11 15 11 9 5 1 2 5 1 1 2 2 6 8 6 7 7 8 8 7 6 3 5 1 5 3 2 2 5 3 2 3 2 0 4 4 3 4 4 5 4 15 13 8 12 8 5 6 8 5 4 5 3 2 7 6 1 5 7 4 6 6 5 6 8 8 6 9 11 10
25 23 23 23 24 26 25 24 24 24 12 9 10 7 5 3 3 13 19 15 11 7 6 6 3 2 2 2 2 1 4 5 4 3 2 4 4 4 2 7 5 5 5 4 2 1 3 3 3 4 5 5 6 2 2 4 8 13 16 10 8 7 3 8 10 7 5 7 4 1 5 11 6 9 13 10 7 9 10 11 10 7 9 7 5 5 7
25 22 22 23 24 25 26 24 25 19 9 12 9 8 4 6 9 22 18 10 6 3 3 3 5 2 2 4 3 2 3 4 2 5 5 4 6 3 2 2 2 1 5 3 3 4 3 4 4 4 5 4 4 3 6 10 13 18 19 14 7 5 8 6 6 8 10 9 11 11 12 13 12 11 12 14 6 10 9 11 9 4 3 5 7 8 7
26 23 22 21 22 23 24 26 22 19 12 8 3 9 7 6 11 18 15 10 3 1 2 4 4 4 3 3 5 3 4 7 5 8 4 2 3 5 4 5 4 4 4 9 6 3 3 2 6 3 4 2 2 3 6 12 19 19 17 15 11 9 5 5 6 9 9 9 10 13 14 14 10 1 4 8 10 6 7 6 3 4 7 7 10 11 11
24 24 21 21 20 20 22 20 11 8 5 3 3 3 8 17 18 21 18 10 7 2 2 2 1 4 3 1 2 4 2 5 5 6 5 2 5 5 3 4 4 5 5 4 0 5 6 6 6 5 6 4 4 5 9 16 19 16 17 15 12 9 6 8 11 12 10 6 7 10 11 8 7 8 11 10 9 5 7 8 8 9 8 9 11 11 8
25 25 23 22 21 18 9 9 4 5 3 5 5 6 15 18 22 14 10 1 2 5 5 4 4 7 7 6 5 3 4 1 2 4 3 2 2 2 3 4 3 5 1 4 6 7 7 4 4 5 6 7 10 11 15 17 19 18 16 13 10 10 13 17 17 13 4 6 9 10 10 9 10 15 15 12 7 5 8 7 6 6 9 11 11 11 8
22 24 22 17 7 4 5 4 3 3 4 6 11 16 15 11 5 6 2 3 1 0 5 6 4 6 8 6 1 2 5 6 4 4 5 5 5 2 3 4 7 3 4 3 4 7 6 3 4 5 7 11 14 17 18 18 15 13 10 8 10 11 12 14 15 12 4 6 8 8 10 11 12 11 11 10 10 7 5 7 11 11 11 14 14 11 12
20 11 4 5 3 2 2 1 3 8 23 26 18 9 3 2 3 1 1 2 3 3 1 3 5 2 4 6 3 5 6 3 2 5 3 4 5 3 2 3 4 4 5 4 5 3 4 3 6 9 10 10 12 13 16 13 9 6 5 6 10 12 12 12 11 7 6 7 6 10 9 6 9 10 10 13 12 9 11 13 11 10 11 11 13 12 9
11 6 3 2 3 2 4 2 10 24 14 4 5 3 1 1 3 1 2 1 1 0 3 4 6 5 6 5 1 1 5 6 5 5 5 5 5 3 2 3 4 3 3 2 6 6 3 4 2 4 7 8 12 19 17 9 8 6 9 12 13 13 11 9 7 11 13 14 16 16 13 13 14 16 11 10 10 9 9 9 9 8 10 11 11 10 8
6 5 5 5 3 2 1 11 24 12 4 3 1 3 3 0 3 3 1 4 0 2 2 2 2 3 4 10 11 4 2 5 8 7 5 1 0 5 1 3 3 4 5 5 4 5 5 5 5 5 9 10 15 18 12 9 11 12 12 13 13 10 6 8 9 11 13 15 14 13 12 8 8 10 10 10 11 11 10 9 11 10 8 11 11 8 9
4 4 3 5 3 3 5 5 4 4 3 2 2 1 2 1 1 0 2 1 1 2 0 3 2 3 1 2 3 6 1 4 1 2 3 3 2 5 3 2 1 4 2 2 1 4 1 1 4 9 12 13 14 14 10 8 10 11 8 7 8 9 9 10 12 13 8 9 10 11 11 8 7 9 9 9 9 11 12 11 10 11 9 8 9 7 1
3 4 4 7 5 5 5 4 2 3 2 0 3 3 2 1 2 3 1 5 4 2 2 1 3 6 5 7 6 4 0 1 2 1 2 0 2 4 3 0 1 4 2 2 3 3 3 1 3 3 7 12 12 8 4 6 8 8 9 7 7 9 10 10 11 10 6 9 10 9 9 7 7 9 7 6 7 8 7 6 6 5 7 4 1 3 4
22 15 11 6 3 1 1 2 1 2 3 1 2 2 1 3 2 5 2 0 2 3 3 3 1 2 2 2 2 0 4 2 2 0 3 3 1 3 2 0 2 0 3 1 3 2 2 3 3 8 7 9 9 8 8 9 8 5 5 4 3 4 5 6 7 9 7 8 10 9 6 4 3 1 1 0 1 2 2 1 1 2 3 4 4 4 4
7 5 5 1 3 2 2 6 2 4 1 1 3 6 3 3 1 3 3 4 3 1 5 9 8 9 4 0 5 2 2 2 3 2 2 1 4 2 2 3 3 2 4 1 1 3 6 3 8 8 9 8 7 6 5 4 3 4 5 2 1 2 2 4 4 5 7 2 1 1 0 2 4 2 3 3 0 6 4 1 1 4 5 6 6 4 4
5 3 3 2 2 2 3 2 1 3 4 4 3 3 5 9 8 7 9 3 6 7 6 3 7 6 7 2 4 1 2 2 0 5 3 3 2 1 3 3 1 2 3 3 1 1 1 5 9 8 8 9 7 2 2 2 2 4 5 5 4 3 4 5 8 7 6 1 1 0 1 1 2 2 3 3 3 1 3 5 4 6 6 7 7 6 3
3 3 4 4 2 1 2 1 2 2 1 2 4 6 7 7 10 10 3 3 5 3 10 8 7 7 6 1 5 4 3 2 4 2 2 2 4 3 2 0 2 2 1 1 4 8 10 11 10 11 5 3 3 4 6 6 7 7 2 4 6 6 5 5 5 4 3 1 1 2 2 2 2 4 3 3 3 4 3 3 3 4 6 7 7 7 5
3 2 1 1 3 1 2 4 4 3 2 2 1 2 3 5 2 4 3 2 5 5 7 5 5 4 9 2 2 2 1 1 2 2 4 2 3 0 2 2 2 3 4 4 3 4 6 11 7 2 5 5 6 6 6 7 8 8 7 6 7 7 7 5 4 2 1 2 2 3 3 3 3 3 5 5 5 5 4 4 4 3 5 8 7 7 7
3 0 2 2 2 3 6 3 2 2 2 2 1 1 1 3 7 3 0 1 7 8 10 8 7 3 5 2 4 4 2 0 2 3 2 2 2 4 0 1 2 1 2 4 9 7 7 1 2 3 4 4 4 6 7 8 9 9 8 7 7 7 6 4 2 1 0 2 2 3 3 3 4 4 5 7 5 4 4 4 4 6 8 9 8 7 7
3 1 2 2 0 1 2 1 4 4 3 4 1 2 5 6 4 5 3 2 7 7 5 7 4 5 2 0 3 2 1 3 4 3 3 1 2 3 3 3 2 1 4 6 7 4 1 0 2 3 3 4 4 5 5 4 6 7 7 7 7 7 5 2 1 0 1 1 4 4 5 3 4 5 6 6 7 5 4 4 5 5 5 8 9 8 7
3 2 3 3 3 3 1 1 5 2 2 2 1 1 1 4 5 2 1 3 4 7 3 6 3 5 2 3 1 1 0 0 2 1 4 2 3 1 4 1 3 5 4 2 3 1 1 3 3 3 4 4 4 5 6 7 6 7 7 6 5 5 3 1 0 1 1 1 1 2 4 4 4 5 6 7 6 6 6 6 6 6 5 4 6 7 7
1 2 1 2 2 3 5 5 7 4 3 2 0 0 1 3 2 2 2 3 5 5 4 3 2 3 2 2 1 2 2 1 3 3 5 4 1 3 4 5 6 6 3 1 1 2 2 3 3 3 5 5 5 5 5 7 6 7 7 5 6 3 3 2 1 2 3 3 4 5 4 4 3 5 6 8 8 9 9 6 5 4 5 5 4 6 6
1 2 1 1 4 5 3 3 5 4 3 2 3 0 0 3 0 1 3 2 5 7 6 2 4 2 3 3 3 2 1 4 2 1 1 3 2 5 4 6 3 1 0 1 1 2 2 1 1 2 3 4 5 6 6 6 6 6 5 4 4 3 3 3 3 2 2 3 4 6 4 4 6 6 6 8 8 8 8 6 2 3 4 4 4 4 4
Wind_Direction
94 94 94 99 106 113 111 127 143 139 138 135 164 104 123 175 146 357 287 202 176 161 204 164 195 216 250 63 37 105 144 154 187 161 200 171 156 125 186 192 159 249 169 182 164 166 201 159 214 236 286 279 228 303 144 155 124 79 36 64 238 101 112 157 298 305 314 319 342 54 105 97 33 287 74 130 190 191 204 213 171 186 152 172 330 241 264
104 103 101 101 100 102 101 114 123 122 106 136 127 113 138 99 114 103 323 110 328 188 191 200 205 188 360 171 145 337 167 155 150 184 187 169 169 169 167 6 222 173 141 138 182 177 170 224 181 240 194 232 70 335 244 224 180 156 209 150 203 143 233 145 129 351 339 343 327 17 15 51 210 197 213 191 56 54 75 80 45 220 213 189 138 249 252
110 116 115 112 111 108 102 98 109 89 70 58 126 141 149 115 92 107 272 45 292 204 348 186 196 192 178 162 172 169 121 227 178 155 178 134 151 120 216 188 145 153 164 166 102 198 185 101 236 128 178 223 41 355 20 314 214 53 314 52 164 163 180 149 196 214 223 223 192 216 226 217 210 183 191 210 176 144 125 234 176 231 205 129 203 248 239
121 120 123 127 128 122 108 101 98 83 71 53 78 142 95 165 146 165 18 40 8 329 140 64 178 197 170 193 206 156 173 27 311 130 183 164 142 123 128 17 84 123 130 156 188 199 331 165 202 168 225 230 11 43 343 359 10 2 62 30 61 172 176 191 209 212 229 233 199 260 91 69 181 227 177 202 199 200 193 92 174 219 183 196 228 229 192
134 124 125 129 131 125 113 109 99 90 70 68 111 32 122 52 133 145 177 78 275 240 147 175 165 203 179 197 161 196 189 134 30 199 172 198 144 112 126 157 150 221 155 190 192 184 145 85 130 206 174 312 243 305 101 15 18 48 47 355 80 66 208 231 231 241 244 142 177 212 170 179 212 191 226 211 190 187 188 198 227 123 118 251 215 115 159
143 137 132 129 127 125 114 104 100 95 88 92 50 82 6 111 260 107 186 134 195 194 227 179 136 85 159 202 78 229 189 176 191 72 268 82 200 133 329 222 198 167 180 136 155 180 200 138 220 97 61 72 346 8 19 147 295 80 36 334 132 150 220 236 187 264 257 82 337 151 187 222 203 204 209 215 209 188 201 219 207 168 209 241 219 160 204
160 154 148 144 144 136 130 123 110 100 76 40 98 94 306 96 33 102 345 129 286 174 105 142 145 126 80 36 160 204 209 214 200 147 123 117 277 190 194 212 210 193 148 131 155 158 150 224 186 156 174 187 143 255 326 259 57 106 62 44 137 85 262 263 186 256 266 259 221 179 208 214 188 232 228 226 205 205 209 213 207 206 228 267 90 174 216
176 166 162 159 157 153 145 140 132 127 102 62 71 63 122 234 131 207 6 83 102 96 107 133 139 190 158 152 213 179 177 201 89 3 145 165 253 197 224 232 186 188 164 158 191 206 193 147 159 205 155 240 167 229 191 181 345 115 169 147 276 150 260 164 161 241 250 228 101 235 202 184 229 245 246 235 211 226 228 227 207 56 324 279 242 233 260
186 180 172 169 168 166 161 154 149 142 136 62 97 44 65 101 66 180 124 155 231 91 123 135 162 168 168 202 214 145 189 215 193 212 188 182 183 191 214 224 144 183 188 208 225 210 206 211 195 180 163 220 194 166 271 159 154 147 124 164 260 167 254 66 132 224 248 203 177 166 76 31 234 249 244 208 157 215 205 196 192 185 212 217 235 247 252
190 189 183 177 175 172 170 166 159 158 121 110 115 128 158 70 324 101 106 140 167 152 176 130 116 217 204 175 175 172 219 164 130 245 233 212 198 184 202 208 162 205 193 218 224 218 204 226 113 174 173 97 86 199 167 164 170 175 194 132 152 189 152 169 190 230 233 297 140 153 104 5 298 243 237 219 210 218 77 176 198 212 191 202 223 242 241
200 194 191 186 181 178 176 174 171 164 119 137 119 154 149 148 143 43 40 129 334 165 147 202 188 222 126 169 219 192 227 149 171 178 272 105 245 152 179 169 168 209 213 224 229 114 110 100 105 56 73 69 90 107 134 94 124 168 165 150 217 159 171 206 175 237 151 40 133 119 148 215 236 308 163 195 215 217 204 207 210 213 173 205 213 245 111
212 203 194 192 187 185 181 177 178 182 161 166 115 139 190 128 82 80 110 197 228 153 184 208 195 232 133 188 197 202 209 186 196 193 226 179 219 60 150 174 155 234 218 123 108 102 108 84 67 68 57 51 59 42 79 194 76 7 198 173 177 192 197 212 152 157 182 104 119 174 215 231 25 318 350 354 250 212 216 226 237 214 220 244 267 263 221
234 211 202 193 192 190 188 184 181 182 155 120 104 145 213 188 111 131 131 174 221 163 194 230 195 226 157 152 205 219 208 200 187 199 219 179 209 219 212 170 192 218 137 136 124 107 84 109 52 89 9 30 23 46 39 38 8 356 24 65 169 179 184 134 34 112 50 124 182 218 234 21 302 1 351 22 79 63 97 308 273 231 217 217 226 242 237
256 228 210 202 194 195 196 194 188 185 160 132 105 137 145 159 123 111 145 136 230 173 203 288 104 234 193 199 171 226 150 189 166 129 200 318 177 192 215 181 244 172 162 129 93 106 73 50 256 134 266 55 348 247 177 81 55 38 3 349 344 188 114 151 203 177 173 206 197 236 6 318 218 10 265 167 150 178 158 227 258 222 212 201 205 224 248
250 249 224 214 206 197 198 197 196 191 166 146 103 93 118 115 119 127 228 107 213 86 169 217 211 212 176 199 170 159 168 171 162 235 29 33 72 314 192 296 330 155 288 124 116 49 143 119 83 152 288 133 216 232 69 266 125 51 134 292 330 270 194 194 194 232 142 157 209 309 275 250 236 198 232 66 161 134 172 142 281 280 226 183 177 211 232
244 246 240 221 214 210 202 199 195 190 177 147 116 131 164 150 103 88 117 150 130 237 230 209 95 130 179 199 186 197 199 168 185 130 150 143 189 54 357 148 301 73 51 70 102 120 160 157 203 178 206 182 225 83 259 122 324 152 56 354 103 354 53 305 215 206 78 182 211 213 204 254 156 198 172 199 148 127 104 79 276 259 188 199 178 208 231
237 238 239 235 224 217 215 206 194 192 180 156 148 147 180 182 133 136 114 37 189 218 19 108 121 106 91 92 37 245 194 206 162 183 199 203 161 131 90 112 338 106 176 101 202 113 146 110 78 113 334 142 133 205 63 75 171 319 350 35 57 44 351 23 358 187 207 147 223 226 228 228 286 180 221 204 154 124 76 332 275 260 197 186 164 198 212
234 234 233 232 230 222 210 211 206 193 190 170 152 160 176 189 153 114 79 126 153 288 194 179 112 168 193 186 167 242 72 67 53 32 103 125 119 150 165 141 100 272 162 144 189 155 179 150 179 193 204 221 155 77 204 158 164 211 172 149 155 185 298 176 219 228 227 229 259 355 287 261 174 171 152 159 150 82 102 230 233 233 190 190 180 197 204
234 231 231 229 230 227 222 210 205 203 198 183 151 123 184 165 165 118 107 118 144 216 276 303 126 152 183 73 126 161 176 177 157 131 182 133 243 199 135 207 167 177 188 172 151 163 185 225 41 163 172 238 124 198 158 101 200 49 125 78 48 343 89 327 339 223 238 246 256 242 271 237 153 267 150 173 93 213 212 236 198 151 195 196 192 198 198
239 234 229 227 226 225 222 222 214 210 208 186 156 179 166 166 187 170 159 160 175 206 216 182 176 191 189 148 174 135 206 82 293 146 189 191 174 115 87 87 285 100 345 146 205 209 176 197 180 119 46 178 212 155 44 244 91 159 174 227 143 194 140 209 201 216 56 115 245 279 260 263 124 134 55 290 153 239 191 155 272 187 174 173 207 203 201
242 239 234 229 224 220 217 215 212 208 202 193 171 157 143 180 182 186 142 136 124 199 275 215 94 205 186 185 194 174 163 194 181 160 235 143 184 152 176 205 172 138 186 178 178 199 155 201 165 177 218 145 229 81 187 156 324 265 134 187 186 213 103 247 263 182 170 194 206 213 229 127 163 142 177 214 210 188 154 131 189 209 166 183 184 215 199
240 239 237 231 226 221 215 215 215 212 205 201 176 159 178 184 173 180 145 131 166 195 209 225 178 210 220 214 202 187 179 177 203 157 128 144 301 187 211 108 148 147 192 115 57 25 359 141 44 98 201 227 10 188 186 109 235 245 4 115 304 214 190 179 191 213 157 199 213 217 178 165 195 177 186 204 209 152 181 154 170 175 227 192 183 204 200
233 235 232 229 228 224 218 214 213 211 211 206 187 180 179 143 163 163 136 190 331 53 95 26 302 324 340 295 223 196 206 153 126 101 139 123 217 336 140 138 182 155 101 95 172 159 167 136 195 152 49 188 181 177 325 157 227 215 163 247 200 300 147 161 82 261 268 272 180 139 13 201 202 241 218 209 228 184 152 175 159 223 189 170 188 209 190
231 230 229 225 227 225 224 221 212 210 206 207 198 178 178 157 153 135 138 183 192 225 239 180 84 230 208 230 246 226 138 140 183 193 181 144 157 252 339 270 184 58 338 232 173 135 188 116 203 121 171 231 94 129 187 254 224 191 92 303 283 242 131 120 195 270 106 263 97 154 196 199 200 214 234 248 257 217 198 212 223 210 180 200 217 193 187
234 232 228 224 220 218 221 222 219 213 211 207 198 182 130 148 160 160 157 169 177 179 229 191 221 226 184 188 178 125 213 189 161 170 158 160 165 169 200 212 164 156 206 178 132 74 45 112 207 96 192 248 134 225 263 136 285 158 170 253 16 311 176 134 232 222 185 244 216 235 333 247 222 214 221 243 244 236 211 220 227 226 190 196 205 154 153
233 231 229 225 224 222 220 215 219 218 215 210 191 177 179 174 170 160 153 117 103 133 213 248 263 76 140 132 196 204 183 171 179 172 182 186 175 181 149 108 39 37 95 86 78 131 129 73 99 148 163 271 115 147 225 203 178 219 180 219 197 182 116 222 181 194 252 257 279 267 340 324 262 245 240 240 242 235 228 225 234 234 203 217 210 207 190
233 230 227 225 225 224 222 217 210 211 214 210 194 178 181 167 163 168 175 163 132 324 216 238 190 27 195 208 206 108 138 168 174 170 176 147 132 100 118 134 117 91 100 56 24 112 58 102 144 217 171 232 131 175 144 67 154 156 215 255 123 94 234 194 90 244 216 182 213 153 151 249 241 230 232 234 236 217 232 237 241 228 218 215 210 238 225
233 234 229 222 223 222 223 219 217 216 214 208 191 186 178 169 184 187 181 171 184 184 169 188 149 227 105 323 242 186 186 171 173 175 172 177 151 146 146 152 130 110 123 114 93 115 147 173 237 213 84 259 96 277 125 330 69 16 262 241 172 186 220 136 206 223 232 239 218 194 211 236 231 215 224 228 229 185 217 233 231 232 224 211 198 226 248
227 231 228 223 221 218 220 225 216 216 215 209 168 181 192 190 183 190 192 203 183 113 89 119 7 66 179 239 91 176 218 164 170 172 174 167 165 166 160 163 161 153 107 84 121 120 153 213 136 146 181 212 101 263 101 185 185 224 231 222 182 228 170 192 205 103 212 217 196 193 195 221 245 228 195 214 206 191 214 231 230 231 227 204 204 216 222
224 224 228 226 222 217 213 217 224 218 207 186 161 140 181 239 192 191 192 188 182 139 153 145 175 239 8 42 271 211 145 153 168 165 171 167 171 180 175 162 172 154 134 161 164 190 215 143 239 259 265 202 156 200 129 199 195 242 242 241 225 236 237 190 147 152 235 189 171 193 206 231 242 238 204 212 203 178 200 226 228 227 228 196 206 227 226
227 220 220 223 222 220 216 210 212 219 214 177 166 168 179 198 209 203 182 178 167 157 147 201 211 78 19 255 149 186 175 153 164 172 183 183 185 175 167 119 143 155 148 160 157 214 143 217 164 244 125 200 135 125 174 167 239 268 246 234 226 235 222 160 211 221 212 161 195 185 219 239 245 319 288 243 209 195 215 241 242 220 223 193 212 219 229
225 219 218 218 221 219 215 212 210 210 195 170 198 197 186 200 186 155 176 179 160 166 165 174 196 171 212 212 188 282 149 166 129 130 153 153 180 160 162 176 184 180 161 169 205 98 231 187 132 198 163 194 120 129 164 194 232 247 254 244 225 239 174 195 216 227 216 200 142 262 282 264 214 204 247 251 189 198 198 223 230 224 219 222 238 235 236
225 218 216 215 216 218 217 215 210 206 182 196 193 58 328 312 170 157 170 141 142 191 153 188 173 153 175 220 88 311 162 92 106 150 203 176 182 132 170 160 109 105 222 136 217 204 224 165 161 185 231 120 124 192 208 220 234 244 250 254 241 216 226 212 207 210 211 196 176 198 231 246 249 228 226 253 213 185 203 219 234 223 232 248 258 259 258
221 216 216 216 215 216 217 216 213 211 191 179 200 224 199 161 175 157 136 142 114 149 146 153 167 144 209 319 66 262 153 151 165 166 174 160 148 134 173 132 187 170 241 200 218 139 317 121 180 193 98 189 173 124 225 233 236 244 252 254 247 242 240 235 219 222 221 203 204 212 227 237 255 177 200 233 241 201 201 206 175 191 226 225 238 238 242
218 215 209 210 213 214 212 210 203 190 164 172 223 285 149 159 154 150 150 162 147 230 122 274 149 115 86 6 159 258 165 131 166 178 160 157 128 156 154 125 201 188 230 102 342 194 202 208 145 137 205 152 163 217 230 237 239 240 243 250 249 250 263 267 255 234 224 204 202 229 239 253 264 263 248 240 236 175 172 207 201 197 219 234 232 243 239
214 207 204 204 209 210 215 202 133 120 109 183 206 166 160 159 153 156 161 54 158 151 163 202 161 200 161 172 185 249 112 30 145 98 154 116 36 179 138 146 205 208 111 158 196 179 208 139 114 225 163 167 212 212 228 230 234 237 235 240 241 228 234 237 249 255 204 175 200 221 233 240 234 243 248 247 240 199 193 204 214 201 221 237 242 241 239
217 214 202 201 187 82 174 189 137 166 201 128 124 117 110 91 45 104 108 160 298 21 143 150 144 220 189 191 82 264 135 165 150 119 163 144 162 147 142 182 188 158 122 209 191 204 208 158 202 195 181 203 223 225 231 235 231 238 237 228 234 233 238 247 248 255 240 182 209 227 227 231 238 246 253 253 243 223 185 210 213 200 213 229 238 242 233
206 195 110 89 96 110 48 201 206 145 121 120 109 80 348 10 140 115 114 123 229 91 305 90 179 150 41 100 187 212 107 268 103 149 160 159 123 214 164 157 210 166 213 191 213 138 99 134 198 211 230 229 248 248 241 241 241 230 223 220 232 233 233 235 244 234 236 256 264 251 250 249 251 247 232 243 241 224 215 222 223 217 219 229 234 236 245
149 124 88 99 105 191 181 217 143 132 116 94 42 83 21 191 108 50 231 138 48 359 253 131 180 148 129 87 114 74 140 174 137 172 164 215 123 248 130 143 252 120 255 145 262 133 190 195 207 214 244 230 240 247 243 235 240 212 211 229 231 235 232 236 217 208 218 225 235 240 231 227 229 243 231 234 247 239 232 232 234 228 221 228 237 240 240
130 148 140 146 157 191 128 146 135 114 114 98 348 105 141 144 133 207 121 77 52 294 109 124 170 136 180 149 151 196 216 131 162 174 161 277 5 157 224 82 245 127 210 189 224 120 160 197 190 179 238 230 238 243 241 222 230 232 224 233 240 241 231 222 230 223 224 237 241 249 256 238 220 228 231 219 226 238 240 231 231 231 223 227 231 231 231
138 92 116 139 157 124 115 110 26 50 80 91 70 360 101 52 252 241 103 99 96 236 89 155 67 88 111 89 148 155 216 77 313 81 109 152 223 84 61 175 247 84 257 180 265 83 97 119 187 191 221 228 235 241 237 233 235 245 237 227 231 233 229 231 236 238 226 239 252 253 252 244 222 228 230 226 217 225 232 230 226 227 225 228 231 225 159
128 116 111 93 97 107 90 37 73 85 43 337 125 172 153 158 65 29 221 141 194 156 288 146 161 156 201 168 182 127 88 191 135 116 113 163 229 132 208 211 3 127 206 185 91 71 94 128 214 245 242 241 245 251 239 235 243 239 243 225 225 232 233 236 242 254 218 222 240 247 250 242 229 230 238 239 234 237 248 247 247 235 217 217 128 118 137
105 108 105 102 80 66 145 80 251 129 142 125 103 123 134 99 198 147 207 238 325 97 229 49 215 74 337 55 59 30 159 181 129 117 90 185 62 60 106 128 122 124 221 32 68 84 126 212 228 239 240 247 245 247 241 235 246 252 255 247 244 270 263 250 245 253 243 213 233 243 264 269 259 289 25 54 253 306 16 57 259 171 126 126 130 130 130
101 85 73 31 118 239 134 186 149 71 159 143 153 159 155 137 263 77 118 203 196 187 203 150 194 150 188 248 135 139 50 19 104 73 32 357 80 163 143 204 204 233 65 30 102 154 212 231 217 232 235 243 253 249 269 308 323 335 311 297 185 240 258 277 281 278 271 229 51 16 70 90 92 37 30 33 88 225 212 74 62 116 122 114 113 116 120
108 35 76 60 106 209 96 273 53 123 176 197 161 158 160 167 175 167 183 201 136 198 165 116 129 135 131 223 50 339 113 193 282 103 212 115 55 238 126 227 184 65 131 204 142 297 350 268 251 247 253 254 257 301 20 295 272 261 268 302 279 243 230 230 246 240 263 296 220 96 108 86 91 61 37 19 348 327 179 175 164 133 131 121 117 116 114
96 148 130 123 167 254 141 141 92 150 261 159 199 179 167 191 162 192 206 84 135 148 145 159 130 113 110 299 125 183 97 114 70 190 139 84 126 228 205 56 77 109 231 135 189 209 221 237 240 243 252 277 326 345 350 345 345 341 344 285 334 4 351 331 323 348 4 57 67 77 92 85 108 115 83 31 25 30 45 88 122 134 133 124 128 126 112
69 35 96 102 102 182 74 145 218 203 161 182 183 184 181 153 150 120 136 101 106 142 96 91 114 145 135 171 74 3 31 74 131 231 90 112 178 237 26 115 210 176 178 223 206 227 238 236 249 31 29 351 343 349 355 356 2 8 355 339 341 337 340 351 358 1 21 81 87 89 96 101 96 110 116 85 50 35 41 63 68 81 106 117 114 108 99
94 104 74 97 153 145 158 207 138 87 15 125 196 183 200 147 110 103 295 150 138 130 128 122 101 69 41 311 73 169 172 218 98 293 139 169 58 40 109 49 247 220 184 201 225 218 234 350 28 353 354 11 348 354 357 358 354 354 347 340 333 329 336 337 334 353 84 123 123 123 129 128 131 122 111 116 102 59 48 57 76 89 103 105 107 108 110
73 81 115 133 47 79 47 53 111 89 334 345 315 116 115 117 143 134 179 163 129 143 146 122 164 101 154 141 119 158 233 231 120 209 78 40 126 188 161 203 171 234 251 188 230 227 222 38 314 323 339 7 14 9 349 339 340 335 337 330 320 308 312 328 344 359 59 96 123 133 140 150 127 116 117 110 104 86 51 58 81 87 100 120 120 118 109
66 23 28 68 82 21 235 33 73 83 336 354 51 109 355 100 105 138 268 97 149 124 132 88 82 92 178 111 101 71 216 240 153 89 74 214 192 197 83 161 238 190 246 240 216 248 351 341 333 341 359 353 356 6 345 340 341 330 325 315 315 329 336 313 61 50 43 52 76 105 124 116 119 128 127 120 109 104 81 63 65 82 79 83 108 111 113
5 94 102 337 113 168 143 144 164 175 209 209 74 335 91 95 116 142 335 129 136 85 51 123 166 108 104 51 101 99 247 132 82 168 156 191 172 124 179 195 231 206 214 177 84 35 31 1 7 332 343 340 337 338 335 317 319 308 309 319 328 342 351 19 42 69 75 74 92 96 85 81 84 95 97 109 113 104 86 62 47 68 82 74 79 107 112
62 67 91 352 21 44 40 100 64 74 103 134 125 322 64 132 267 254 315 194 143 144 181 171 96 102 88 170 199 164 46 49 216 106 64 261 139 146 213 197 223 214 25 9 332 358 356 334 1 331 296 314 320 322 317 316 311 315 330 338 350 360 8 9 20 30 66 77 85 99 95 90 99 102 109 110 109 106 105 110 77 71 83 85 74 81 110